This is the latest recevied weather packets stored in our database for station/object IZ4UFQ-10. If no packets are shown the sender has not sent any weather packets the latest 10 day(s).
| Time | Temp. | Humidity | Pressure | Rain* | Wind** | Luminosity | Snow |
|---|---|---|---|---|---|---|---|
| 1777563883 | 17.22° C | 35% | 1022.8 hPa | 0 mm | - | 332 W/m² | - |
| 1777563583 | 17.22° C | 34% | 1022.8 hPa | 0 mm | - | 360 W/m² | - |
| 1777563283 | 17.22° C | 34% | 1022.7 hPa | 0 mm | - | 396 W/m² | - |
| 1777562982 | 17.22° C | 34% | 1022.8 hPa | 0 mm | - | 422 W/m² | - |
| 1777562682 | 17.22° C | 33% | 1022.7 hPa | 0 mm | - | 438 W/m² | - |
| 1777562382 | 17.22° C | 32% | 1022.7 hPa | 0 mm | - | 452 W/m² | - |
| 1777562081 | 17.22° C | 34% | 1022.7 hPa | 0 mm | - | 468 W/m² | - |
| 1777561781 | 17.22° C | 33% | 1022.8 hPa | 0 mm | - | 476 W/m² | - |
| 1777561481 | 17.22° C | 32% | 1022.8 hPa | 0 mm | - | 492 W/m² | - |
| 1777561181 | 17.78° C | 31% | 1022.7 hPa | 0 mm | - | 508 W/m² | - |
| 1777560880 | 17.78° C | 32% | 1022.7 hPa | 0 mm | - | 524 W/m² | - |
| 1777560580 | 17.78° C | 30% | 1022.8 hPa | 0 mm | - | 536 W/m² | - |
| 1777560280 | 17.78° C | 32% | 1022.7 hPa | 0 mm | - | 552 W/m² | - |
| 1777559979 | 17.78° C | 31% | 1022.7 hPa | 0 mm | - | 566 W/m² | - |
| 1777559679 | 17.78° C | 31% | 1022.8 hPa | 0 mm | - | 577 W/m² | - |
| 1777559379 | 17.78° C | 32% | 1022.6 hPa | 0 mm | - | 587 W/m² | - |
| 1777559078 | 17.78° C | 31% | 1022.7 hPa | 0 mm | - | 601 W/m² | - |
| 1777558778 | 17.78° C | 31% | 1022.7 hPa | 0 mm | - | 582 W/m² | - |
| 1777558478 | 17.78° C | 29% | 1022.7 hPa | 0 mm | - | 629 W/m² | - |
| 1777558178 | 17.78° C | 29% | 1022.7 hPa | 0 mm | - | 642 W/m² | - |
| 1777557877 | 17.78° C | 29% | 1022.8 hPa | 0 mm | - | 652 W/m² | - |
| 1777557577 | 17.22° C | 29% | 1022.9 hPa | 0 mm | - | 673 W/m² | - |
| 1777557277 | 17.22° C | 28% | 1023 hPa | 0 mm | - | 686 W/m² | - |
| 1777556976 | 17.78° C | 27% | 1023.1 hPa | 0 mm | - | 696 W/m² | - |
| 1777556676 | 17.78° C | 28% | 1023 hPa | 0 mm | - | 701 W/m² | - |
* Rain latest hour (hover to see other rain measurements)
** Current wind speed in m/s (hover to see current wind gust speed)